User: anonymous   Login
Location: Unspecified
(0.0000°N, 0.0000°E)
Time: 22:25:52
(UTC+01:00)
Language:

ARIANE 5 R/B - Orbit

View from above orbital plane
View from above orbital plane
View from above satellite
View from above satellite

Ground track
Ground track

The orbit data is extracted from the following two-line orbital elements,

1 29646U 06054D   16044.46371323  .00002013  00000-0  77140-3 0  9994
2 29646   2.4991 193.5956 7113654 223.2946  50.7229  2.48366948 79457
Epoch (UTC): 13 February 2016 11:07:44
Eccentricity: 0.7113654
inclination: 2.4991°
perigee height: 270 km
apogee height: 33038 km
right ascension of ascending node: 193.5956°
argument of perigee: 223.2946°
revolutions per day: 2.48366948
mean anomaly at epoch: 50.7229°
orbit number at epoch: 7945

The dashed part of the orbit path shows where the satellite is in the earth's shadow,  

DLR